DGAAFKKD

Guest
Details From DGAA - Accra_Kotoka_Intl
To FKKD - Douala
Flight Number -
Tags decoded
Created
Modified
Stats Distance 634 nm / 1,175 km
Max Altitude 0 ft / 0 m
Waypoints 4
Social Downloads 0
Likes 0
Share VATSIM

Download

Looking for another format? Having issues loading an existing format? Contact us
Advertisement - Login to hide

Notes

Requested: DGAA ADA UA609 LAG UR984 TI FKKD Unmatched points: UA609 UR984

Route

DGAA LAG TI FKKD

ID Type Via Altitude Latitude Longitude Leg Dist Tot Dist Heading (true) Name
O DGAA APT - 0 ft / 0 m 5.60258˚ -0.16760˚ - 0 nm - Accra_Kotoka_Intl
LAG VOR - 0 ft / 0 m 6.70846˚ 3.32745˚ 219 nm 219 nm 72° / 73° LAGOS VOR-DME
TI NDB - 0 ft / 0 m 4.08764˚ 9.35589˚ 393 nm 612 nm 113° / 114° TIKO NDB
O FKKD APT - 0 ft / 0 m 4.01421˚ 9.71654˚ 22 nm 634 nm 102° / 102° Douala

Altitude Profile

Weather

Temperature
Clouds and Precipitation
Forecast for 2017-03-31 00:00 UTC. Updated an hour ago
Winds

DGAA

Details ICAO DGAA (ACC)
Name Accra_Kotoka_Intl
Region Ghana
Timezone Africa/Accra (UTC+0.0)
Stats Elevation 204 ft / 62 m (AMSL)
Location 5.602578° -0.167602°
Runways 1
Magnetic Variation 3.495° W

METAR

DGAA 302200Z 28010KT 9999 TS FEW030CB 24/22 Q1012 TEMPO TSRA

Decode

TAF

TAF DGAA 301700Z 3018/3124 20008KT 9999 SCT012 BECMG 3102/3104 27005KT BECMG 3111/3113 21012KT FEW025 TEMPO 3114/3118 FEW030CB FM311900 22010KT 9999 BKN011

Decode

Departure Runways

ID Width Length Bearing (true) Bearing (mag) Surface Threshold Offset Overrun Length
03 200 ft / 61 m 11,176 ft / 3,406 m 22.00° 25.50° Asphalt 0 ft / 0 m 351 ft / 107 m
21 200 ft / 61 m 11,176 ft / 3,406 m 202.00° 205.50° Asphalt 1,355 ft / 413 m 0 ft / 0 m

FKKD

Details ICAO FKKD (DLA)
Name Douala
Region Cameroon
Timezone Africa/Douala (UTC+1.0)
Stats Elevation 33 ft / 10 m (AMSL)
Location 4.014208° 9.716538°
Runways 2
Magnetic Variation 1.188° W

METAR

FKKD 302200Z 25002KT 9999 TS BKN013 FEW016CB 29/26 Q1011 NOSIG

Decode

TAF

TAF FKKD 301700Z 3018/3124 26007KT 8000 TS BKN013 FEW016CB PROB40 3021/3103 3000 TSRA TEMPO 3105/3108 3000 BR BECMG 3106/3108 NSW BKN016 FEW020CB

Decode

Destination Runways

ID Width Length Bearing (true) Bearing (mag) Surface Threshold Offset Overrun Length
03 147 ft / 45 m 8,210 ft / 2,502 m 27.00° 28.19° Asphalt 350 ft / 107 m 0 ft / 0 m
12 148 ft / 45 m 9,363 ft / 2,854 m 116.94° 118.13° Asphalt 0 ft / 0 m 164 ft / 50 m
21 147 ft / 45 m 8,210 ft / 2,502 m 207.00° 208.19° Asphalt 350 ft / 107 m 0 ft / 0 m
30 148 ft / 45 m 9,363 ft / 2,854 m 296.94° 298.13° Asphalt 0 ft / 0 m 164 ft / 50 m

Approach Navaids

Runway Type Ident Frequency Range Bearing (true) Bearing (mag) Slope Elevation
30 Localiser DL 110.30 MHz 18 nm / 33 km 297.68° 298.87° - 25 ft / 8 m (AMSL)
30 Glidescope DL 110.30 MHz 10 nm / 19 km 296.94° 298.13° 3.00° 33 ft / 10 m (AMSL)
30 DME DL 110.30 MHz 18 nm / 33 km - - - 33 ft / 10 m (AMSL)

Popular Alternatives